Time,TemperatureF,DewpointF,PressureIn,WindDirection,WindDirectionDegrees,WindSpeedMPH,WindSpeedGustMPH,Humidity,HourlyPrecipIn,Conditions,Clouds,dailyrainin,SoftwareType,DateUTC
2013-06-16 00:01:00,62.6,59.0,29.97,South,190,2.0,6.0,88,0.00,,,0.00,meteohub,2013-06-16 04:01:00,
2013-06-16 00:06:00,62.2,59.2,29.97,South,173,2.0,6.0,90,0.00,,,0.00,meteohub,2013-06-16 04:06:00,
2013-06-16 00:11:00,62.1,59.2,29.97,South,188,2.0,5.0,90,0.00,,,0.00,meteohub,2013-06-16 04:11:00,
2013-06-16 00:16:00,61.9,59.2,29.97,South,170,2.0,4.0,91,0.00,,,0.00,meteohub,2013-06-16 04:16:00,
2013-06-16 00:21:00,61.5,58.8,29.97,ESE,120,0.0,4.0,91,0.00,,,0.00,meteohub,2013-06-16 04:21:00,
2013-06-16 00:26:00,61.2,58.8,29.98,SSW,212,1.0,4.0,92,0.00,,,0.00,meteohub,2013-06-16 04:26:00,
2013-06-16 00:31:00,61.2,58.8,29.98,SW,215,4.0,4.0,92,0.00,,,0.00,meteohub,2013-06-16 04:31:00,
2013-06-16 00:36:00,61.0,59.0,29.97,SSE,167,2.0,4.0,93,0.00,,,0.00,meteohub,2013-06-16 04:36:00,
2013-06-16 00:41:00,61.2,59.4,29.97,SW,225,3.0,4.0,94,0.00,,,0.00,meteohub,2013-06-16 04:41:00,
2013-06-16 00:46:00,61.3,59.5,29.97,WSW,245,3.0,4.0,94,0.00,,,0.00,meteohub,2013-06-16 04:46:00,
2013-06-16 00:52:00,61.3,59.5,29.97,SW,229,0.0,4.0,94,0.00,,,0.00,meteohub,2013-06-16 04:52:00,
2013-06-16 00:57:00,61.3,59.5,29.97,WSW,257,0.0,4.0,94,0.00,,,0.00,meteohub,2013-06-16 04:57:00,
2013-06-16 01:02:00,61.2,59.2,29.97,WNW,284,0.0,4.0,93,0.00,,,0.00,meteohub,2013-06-16 05:02:00,
2013-06-16 01:07:00,61.0,59.0,29.96,WSW,242,0.0,3.0,93,0.00,,,0.00,meteohub,2013-06-16 05:07:00,
2013-06-16 01:12:00,60.6,58.8,29.97,WSW,242,0.0,2.0,94,0.00,,,0.00,meteohub,2013-06-16 05:12:00,
2013-06-16 01:17:00,60.3,58.5,29.96,SSE,150,0.0,1.0,94,0.00,,,0.00,meteohub,2013-06-16 05:17:00,
2013-06-16 01:22:00,59.9,58.5,29.96,SSE,163,0.0,0.0,95,0.00,,,0.00,meteohub,2013-06-16 05:22:00,
2013-06-16 01:27:00,59.7,58.6,29.96,SSE,163,0.0,0.0,96,0.00,,,0.00,meteohub,2013-06-16 05:27:00,
2013-06-16 01:32:00,59.7,58.6,29.96,SW,235,0.0,0.0,96,0.00,,,0.00,meteohub,2013-06-16 05:32:00,
2013-06-16 01:37:00,59.5,58.5,29.96,West,278,0.0,0.0,96,0.00,,,0.00,meteohub,2013-06-16 05:37:00,
2013-06-16 01:42:00,59.2,58.1,29.96,West,278,0.0,1.0,96,0.00,,,0.00,meteohub,2013-06-16 05:42:00,
2013-06-16 01:47:00,59.0,57.9,29.96,West,278,0.0,1.0,96,0.00,,,0.00,meteohub,2013-06-16 05:47:00,
2013-06-16 01:52:00,58.8,57.7,29.96,West,278,0.0,1.0,96,0.00,,,0.00,meteohub,2013-06-16 05:52:00,
2013-06-16 01:57:00,58.5,57.4,29.96,West,278,0.0,1.0,96,0.00,,,0.00,meteohub,2013-06-16 05:57:00,
2013-06-16 02:02:00,58.3,57.2,29.96,West,278,0.0,0.0,96,0.00,,,0.00,meteohub,2013-06-16 06:02:00,
2013-06-16 02:07:00,58.3,57.4,29.96,West,278,0.0,0.0,97,0.00,,,0.00,meteohub,2013-06-16 06:07:00,
2013-06-16 02:12:00,58.1,57.2,29.97,West,280,0.0,0.0,97,0.00,,,0.00,meteohub,2013-06-16 06:12:00,
2013-06-16 02:17:00,57.9,57.0,29.96,West,280,0.0,0.0,97,0.00,,,0.00,meteohub,2013-06-16 06:17:00,
2013-06-16 02:22:00,58.1,57.6,29.96,West,279,0.0,0.0,98,0.00,,,0.00,meteohub,2013-06-16 06:22:00,
2013-06-16 02:27:00,57.9,57.4,29.96,West,280,0.0,0.0,98,0.00,,,0.00,meteohub,2013-06-16 06:27:00,
2013-06-16 02:32:00,57.7,56.8,29.97,West,279,0.0,0.0,97,0.00,,,0.00,meteohub,2013-06-16 06:32:00,
2013-06-16 02:37:00,57.7,57.2,29.96,West,278,0.0,0.0,98,0.00,,,0.00,meteohub,2013-06-16 06:37:00,
2013-06-16 02:42:00,57.6,56.7,29.96,West,278,0.0,0.0,97,0.00,,,0.00,meteohub,2013-06-16 06:42:00,
2013-06-16 02:47:00,57.4,56.8,29.96,West,278,0.0,0.0,98,0.00,,,0.00,meteohub,2013-06-16 06:47:00,
2013-06-16 02:52:00,57.0,56.1,29.96,West,278,0.0,0.0,97,0.00,,,0.00,meteohub,2013-06-16 06:52:00,
2013-06-16 02:57:00,56.8,56.3,29.96,West,278,0.0,0.0,98,0.00,,,0.00,meteohub,2013-06-16 06:57:00,
2013-06-16 03:02:00,56.8,56.3,29.97,SW,222,2.0,0.0,98,0.00,,,0.00,meteohub,2013-06-16 07:02:00,
2013-06-16 03:07:00,56.8,56.3,29.97,SW,217,3.0,4.0,98,0.00,,,0.00,meteohub,2013-06-16 07:07:00,
2013-06-16 03:12:00,57.4,57.0,29.97,SW,232,0.0,4.0,99,0.00,,,0.00,meteohub,2013-06-16 07:12:00,
2013-06-16 03:17:00,57.6,57.2,29.97,SW,217,1.0,4.0,99,0.00,,,0.00,meteohub,2013-06-16 07:17:00,
2013-06-16 03:22:00,57.6,57.0,29.97,SSW,212,0.0,3.0,98,0.00,,,0.00,meteohub,2013-06-16 07:22:00,
2013-06-16 03:27:00,57.4,56.8,29.97,SE,139,0.0,2.0,98,0.00,,,0.00,meteohub,2013-06-16 07:27:00,
2013-06-16 03:32:00,57.2,56.7,29.98,South,179,0.0,2.0,98,0.00,,,0.00,meteohub,2013-06-16 07:32:00,
2013-06-16 03:37:00,57.2,56.7,29.97,SSW,201,2.0,3.0,98,0.00,,,0.00,meteohub,2013-06-16 07:37:00,
2013-06-16 03:42:00,57.4,56.8,29.97,SSW,211,0.0,3.0,98,0.00,,,0.00,meteohub,2013-06-16 07:42:00,
2013-06-16 03:47:00,57.6,57.0,29.97,SW,219,1.0,3.0,98,0.00,,,0.00,meteohub,2013-06-16 07:47:00,
2013-06-16 03:52:00,57.6,57.0,29.97,WSW,238,2.0,3.0,98,0.00,,,0.00,meteohub,2013-06-16 07:52:00,
2013-06-16 03:57:00,57.6,56.7,29.97,WSW,240,0.0,2.0,97,0.00,,,0.00,meteohub,2013-06-16 07:57:00,
2013-06-16 04:02:00,57.4,56.5,29.97,WSW,240,0.0,2.0,97,0.00,,,0.00,meteohub,2013-06-16 08:02:00,
2013-06-16 04:07:00,57.0,56.1,29.97,WSW,240,0.0,2.0,97,0.00,,,0.00,meteohub,2013-06-16 08:07:00,
2013-06-16 04:12:00,56.8,55.9,29.97,WSW,240,0.0,0.0,97,0.00,,,0.00,meteohub,2013-06-16 08:12:00,
2013-06-16 04:17:00,56.5,55.6,29.97,WSW,240,0.0,0.0,97,0.00,,,0.00,meteohub,2013-06-16 08:17:00,
2013-06-16 04:22:00,55.9,55.0,29.97,SE,145,0.0,0.0,97,0.00,,,0.00,meteohub,2013-06-16 08:22:00,
2013-06-16 04:27:00,55.8,55.2,29.97,South,174,3.0,0.0,98,0.00,,,0.00,meteohub,2013-06-16 08:27:00,
2013-06-16 04:32:00,55.8,55.2,29.97,SW,229,0.0,3.0,98,0.00,,,0.00,meteohub,2013-06-16 08:32:00,
2013-06-16 04:37:00,55.8,55.4,29.97,SSW,204,1.0,3.0,99,0.00,,,0.00,meteohub,2013-06-16 08:37:00,
2013-06-16 04:42:00,55.9,55.4,29.97,WSW,238,0.0,3.0,98,0.00,,,0.00,meteohub,2013-06-16 08:42:00,
2013-06-16 04:47:00,55.8,55.2,29.97,SW,236,0.0,1.0,98,0.00,,,0.00,meteohub,2013-06-16 08:47:00,
2013-06-16 04:52:00,55.6,55.0,29.96,SW,236,0.0,1.0,98,0.00,,,0.00,meteohub,2013-06-16 08:52:00,
2013-06-16 04:57:00,55.6,55.0,29.96,SSW,212,0.0,1.0,98,0.00,,,0.00,meteohub,2013-06-16 08:57:00,
2013-06-16 05:02:00,55.4,54.9,29.97,SSW,208,0.0,1.0,98,0.00,,,0.00,meteohub,2013-06-16 09:02:00,
2013-06-16 05:07:00,55.2,54.7,29.97,SSW,203,0.0,1.0,98,0.00,,,0.00,meteohub,2013-06-16 09:07:00,
2013-06-16 05:12:00,55.0,54.5,29.97,SSW,203,0.0,1.0,98,0.00,,,0.00,meteohub,2013-06-16 09:12:00,
2013-06-16 05:17:00,55.2,54.9,29.97,SSW,203,0.0,1.0,99,0.00,,,0.00,meteohub,2013-06-16 09:17:00,
2013-06-16 05:22:00,55.2,54.9,29.97,West,271,0.0,1.0,99,0.00,,,0.00,meteohub,2013-06-16 09:22:00,
2013-06-16 05:27:00,55.0,54.5,29.97,West,281,0.0,1.0,98,0.00,,,0.00,meteohub,2013-06-16 09:27:00,
2013-06-16 05:32:00,55.0,54.5,29.97,West,281,0.0,1.0,98,0.00,,,0.00,meteohub,2013-06-16 09:32:00,
2013-06-16 05:37:00,55.2,54.7,29.97,West,281,0.0,1.0,98,0.00,,,0.00,meteohub,2013-06-16 09:37:00,
2013-06-16 05:42:00,55.4,54.9,29.97,West,281,0.0,1.0,98,0.00,,,0.00,meteohub,2013-06-16 09:42:00,
2013-06-16 05:47:00,55.6,54.7,29.97,West,281,0.0,0.0,97,0.00,,,0.00,meteohub,2013-06-16 09:47:00,
2013-06-16 05:52:00,55.9,55.0,29.97,WSW,249,0.0,0.0,97,0.00,,,0.00,meteohub,2013-06-16 09:52:00,
2013-06-16 05:57:00,55.9,55.0,29.97,SSW,198,1.0,0.0,97,0.00,,,0.00,meteohub,2013-06-16 09:57:00,
2013-06-16 06:02:00,55.9,55.0,29.97,SSW,194,0.0,0.0,97,0.00,,,0.00,meteohub,2013-06-16 10:02:00,
2013-06-16 06:07:00,56.1,55.2,29.97,SSW,207,1.0,2.0,97,0.00,,,0.00,meteohub,2013-06-16 10:07:00,
2013-06-16 06:12:00,56.1,55.0,29.97,SW,214,2.0,2.0,96,0.00,,,0.00,meteohub,2013-06-16 10:12:00,
2013-06-16 06:17:00,56.3,55.2,29.97,SW,218,0.0,3.0,96,0.00,,,0.00,meteohub,2013-06-16 10:17:00,
2013-06-16 06:22:00,56.3,55.2,29.97,SW,224,0.0,3.0,96,0.00,,,0.00,meteohub,2013-06-16 10:22:00,
2013-06-16 06:27:00,56.5,55.4,29.97,SSE,148,0.0,3.0,96,0.00,,,0.00,meteohub,2013-06-16 10:27:00,
2013-06-16 06:32:00,56.7,55.6,29.97,South,179,0.0,3.0,96,0.00,,,0.00,meteohub,2013-06-16 10:32:00,
2013-06-16 06:37:00,57.2,55.8,29.97,South,169,0.0,1.0,95,0.00,,,0.00,meteohub,2013-06-16 10:37:00,
2013-06-16 06:42:00,57.6,56.1,29.97,SSE,158,0.0,1.0,95,0.00,,,0.00,meteohub,2013-06-16 10:42:00,
2013-06-16 06:47:00,57.9,56.1,29.98,South,169,0.0,1.0,94,0.00,,,0.00,meteohub,2013-06-16 10:47:00,
2013-06-16 06:52:00,58.6,56.7,29.97,SE,130,1.0,1.0,93,0.00,,,0.00,meteohub,2013-06-16 10:52:00,
2013-06-16 06:57:00,58.8,56.5,29.97,SSE,165,0.0,1.0,92,0.00,,,0.00,meteohub,2013-06-16 10:57:00,
2013-06-16 07:02:00,59.4,56.7,29.97,South,187,1.0,1.0,91,0.00,,,0.00,meteohub,2013-06-16 11:02:00,
2013-06-16 07:07:00,59.9,57.0,29.97,South,177,0.0,1.0,90,0.00,,,0.00,meteohub,2013-06-16 11:07:00,
2013-06-16 07:12:00,60.4,57.2,29.97,South,175,1.0,1.0,89,0.00,,,0.00,meteohub,2013-06-16 11:12:00,
2013-06-16 07:17:00,60.8,57.2,29.97,SSW,194,0.0,2.0,88,0.00,,,0.00,meteohub,2013-06-16 11:17:00,
2013-06-16 07:22:00,61.0,57.0,29.97,SSW,195,2.0,2.0,87,0.00,,,0.00,meteohub,2013-06-16 11:22:00,
2013-06-16 07:27:00,61.2,57.0,29.97,SSW,212,0.0,4.0,86,0.00,,,0.00,meteohub,2013-06-16 11:27:00,
2013-06-16 07:32:00,61.5,57.4,29.97,SSW,203,1.0,4.0,86,0.00,,,0.00,meteohub,2013-06-16 11:32:00,
2013-06-16 07:37:00,62.1,57.6,29.98,SSE,163,1.0,4.0,85,0.00,,,0.00,meteohub,2013-06-16 11:37:00,
2013-06-16 07:42:00,62.8,57.9,29.98,SSW,193,3.0,4.0,84,0.00,,,0.00,meteohub,2013-06-16 11:42:00,
2013-06-16 07:47:00,63.3,58.5,29.98,South,169,0.0,4.0,84,0.00,,,0.00,meteohub,2013-06-16 11:47:00,
2013-06-16 07:52:00,63.9,58.6,29.98,SSE,156,0.0,4.0,83,0.00,,,0.00,meteohub,2013-06-16 11:52:00,
2013-06-16 07:57:00,64.6,59.0,29.98,South,169,1.0,4.0,82,0.00,,,0.00,meteohub,2013-06-16 11:57:00,
2013-06-16 08:02:00,65.5,59.2,29.97,South,184,2.0,2.0,80,0.00,,,0.00,meteohub,2013-06-16 12:02:00,
2013-06-16 08:07:00,66.2,59.5,29.97,South,173,1.0,2.0,79,0.00,,,0.00,meteohub,2013-06-16 12:07:00,
2013-06-16 08:12:00,66.7,59.4,29.97,SW,214,1.0,3.0,77,0.00,,,0.00,meteohub,2013-06-16 12:12:00,
2013-06-16 08:17:00,67.3,58.3,29.97,SSW,198,1.0,3.0,73,0.00,,,0.00,meteohub,2013-06-16 12:17:00,
2013-06-16 08:22:00,68.0,59.4,29.97,SSW,198,0.0,3.0,74,0.00,,,0.00,meteohub,2013-06-16 12:22:00,
2013-06-16 08:27:00,68.5,59.2,29.97,SSW,195,3.0,3.0,72,0.00,,,0.00,meteohub,2013-06-16 12:27:00,
2013-06-16 08:32:00,68.7,59.0,29.97,SW,215,1.0,4.0,71,0.00,,,0.00,meteohub,2013-06-16 12:32:00,
2013-06-16 08:37:00,69.1,59.4,29.97,SSW,210,2.0,4.0,71,0.00,,,0.00,meteohub,2013-06-16 12:37:00,
2013-06-16 08:42:00,69.3,59.5,29.97,SSW,210,4.0,5.0,71,0.00,,,0.00,meteohub,2013-06-16 12:42:00,
2013-06-16 08:47:00,69.3,59.9,29.97,SSW,193,2.0,6.0,72,0.00,,,0.00,meteohub,2013-06-16 12:47:00,
2013-06-16 08:52:00,69.8,58.8,29.96,SSW,208,6.0,6.0,68,0.00,,,0.00,meteohub,2013-06-16 12:52:00,
2013-06-16 08:57:00,70.2,57.9,29.96,South,186,3.0,6.0,65,0.00,,,0.00,meteohub,2013-06-16 12:57:00,
2013-06-16 09:02:00,70.7,57.6,29.96,SSW,208,5.0,6.0,63,0.00,,,0.00,meteohub,2013-06-16 13:02:00,
2013-06-16 09:07:00,70.5,57.4,29.96,SSW,208,7.0,7.0,63,0.00,,,0.00,meteohub,2013-06-16 13:07:00,
2013-06-16 09:11:00,70.0,57.2,29.96,SSW,195,4.0,9.0,64,0.00,,,0.00,meteohub,2013-06-16 13:11:00,
2013-06-16 09:17:00,69.8,56.7,29.96,SW,218,4.0,9.0,63,0.00,,,0.00,meteohub,2013-06-16 13:17:00,
2013-06-16 09:22:00,69.8,55.8,29.96,WSW,254,6.0,9.0,61,0.00,,,0.00,meteohub,2013-06-16 13:22:00,
2013-06-16 09:27:00,70.0,56.3,29.96,SSW,207,0.0,9.0,62,0.00,,,0.00,meteohub,2013-06-16 13:27:00,
2013-06-16 09:32:00,70.2,56.1,29.96,SW,217,3.0,9.0,61,0.00,,,0.00,meteohub,2013-06-16 13:32:00,
2013-06-16 09:37:00,70.2,57.0,29.96,South,190,5.0,8.0,63,0.00,,,0.00,meteohub,2013-06-16 13:37:00,
2013-06-16 09:42:00,70.3,56.3,29.96,SSW,193,8.0,8.0,61,0.00,,,0.00,meteohub,2013-06-16 13:42:00,
2013-06-16 09:47:00,70.3,54.9,29.96,SSW,211,8.0,8.0,58,0.00,,,0.00,meteohub,2013-06-16 13:47:00,
2013-06-16 09:52:00,70.3,54.9,29.96,South,184,8.0,9.0,58,0.00,,,0.00,meteohub,2013-06-16 13:52:00,
2013-06-16 09:57:00,70.3,54.3,29.96,SSW,197,9.0,9.0,57,0.00,,,0.00,meteohub,2013-06-16 13:57:00,
2013-06-16 10:02:00,70.3,57.6,29.95,South,180,7.0,10.0,64,0.00,,,0.00,meteohub,2013-06-16 14:02:00,
2013-06-16 10:07:00,70.0,57.2,29.96,South,191,6.0,10.0,64,0.00,,,0.00,meteohub,2013-06-16 14:07:00,
2013-06-16 10:12:00,69.8,55.8,29.96,South,189,5.0,10.0,61,0.00,,,0.00,meteohub,2013-06-16 14:12:00,
2013-06-16 10:17:00,70.2,57.9,29.95,South,191,4.0,9.0,65,0.00,,,0.00,meteohub,2013-06-16 14:17:00,
2013-06-16 10:22:00,70.2,57.9,29.95,SSW,197,5.0,10.0,65,0.00,,,0.00,meteohub,2013-06-16 14:22:00,
2013-06-16 10:27:00,70.2,57.4,29.95,South,185,5.0,10.0,64,0.00,,,0.00,meteohub,2013-06-16 14:27:00,
2013-06-16 10:32:00,70.5,57.7,29.95,SSW,200,5.0,10.0,64,0.00,,,0.00,meteohub,2013-06-16 14:32:00,
2013-06-16 10:37:00,70.7,57.6,29.95,SW,214,8.0,9.0,63,0.00,,,0.00,meteohub,2013-06-16 14:37:00,
2013-06-16 10:42:00,71.1,54.1,29.95,SSW,197,9.0,12.0,55,0.00,,,0.00,meteohub,2013-06-16 14:42:00,
2013-06-16 10:47:00,71.1,53.6,29.94,SSW,207,7.0,12.0,54,0.00,,,0.00,meteohub,2013-06-16 14:47:00,
2013-06-16 10:52:00,71.2,57.0,29.95,SSW,193,5.0,12.0,61,0.00,,,0.00,meteohub,2013-06-16 14:52:00,
2013-06-16 10:57:00,71.2,56.7,29.94,SE,145,5.0,11.0,60,0.00,,,0.00,meteohub,2013-06-16 14:57:00,
2013-06-16 11:02:00,71.4,57.7,29.94,SSW,193,8.0,9.0,62,0.00,,,0.00,meteohub,2013-06-16 15:02:00,
2013-06-16 11:07:00,71.1,56.8,29.94,SSW,208,7.0,9.0,61,0.00,,,0.00,meteohub,2013-06-16 15:07:00,
2013-06-16 11:12:00,70.9,57.2,29.94,SSW,205,6.0,9.0,62,0.00,,,0.00,meteohub,2013-06-16 15:12:00,
2013-06-16 11:17:00,70.5,56.8,29.94,South,174,6.0,9.0,62,0.00,,,0.00,meteohub,2013-06-16 15:17:00,
2013-06-16 11:22:00,70.3,57.6,29.94,South,187,7.0,11.0,64,0.00,,,0.00,meteohub,2013-06-16 15:22:00,
2013-06-16 11:27:00,70.3,57.6,29.94,South,180,7.0,11.0,64,0.00,,,0.00,meteohub,2013-06-16 15:27:00,
2013-06-16 11:32:00,70.3,56.7,29.94,South,181,9.0,11.0,62,0.00,,,0.00,meteohub,2013-06-16 15:32:00,
2013-06-16 11:37:00,70.2,57.0,29.93,SSW,194,8.0,10.0,63,0.00,,,0.00,meteohub,2013-06-16 15:37:00,
2013-06-16 11:42:00,69.6,58.1,29.93,SSW,200,9.0,12.0,67,0.00,,,0.00,meteohub,2013-06-16 15:42:00,
2013-06-16 11:47:00,69.1,58.1,29.94,SW,221,9.0,12.0,68,0.00,,,0.00,meteohub,2013-06-16 15:47:00,
2013-06-16 11:52:00,68.5,59.2,29.93,South,176,7.0,12.0,72,0.00,,,0.00,meteohub,2013-06-16 15:52:00,
2013-06-16 11:57:00,68.2,59.2,29.93,South,188,7.0,12.0,73,0.00,,,0.00,meteohub,2013-06-16 15:57:00,
2013-06-16 12:02:00,68.0,59.0,29.93,SSW,197,8.0,12.0,73,0.00,,,0.00,meteohub,2013-06-16 16:02:00,
2013-06-16 12:07:00,68.0,59.4,29.92,SSW,195,8.0,10.0,74,0.00,,,0.00,meteohub,2013-06-16 16:07:00,
2013-06-16 12:12:00,68.0,59.7,29.92,South,189,7.0,11.0,75,0.00,,,0.00,meteohub,2013-06-16 16:12:00,
2013-06-16 12:17:00,67.8,59.9,29.92,South,184,10.0,11.0,76,0.00,,,0.00,meteohub,2013-06-16 16:17:00,
2013-06-16 12:22:00,67.6,60.3,29.92,SSW,206,9.0,11.0,77,0.00,,,0.00,meteohub,2013-06-16 16:22:00,
2013-06-16 12:27:00,67.5,60.4,29.91,SSW,200,10.0,12.0,78,0.00,,,0.00,meteohub,2013-06-16 16:27:00,
2013-06-16 12:32:00,67.5,61.2,29.91,SSW,200,11.0,14.0,80,0.00,,,0.00,meteohub,2013-06-16 16:32:00,
2013-06-16 12:37:00,67.5,61.2,29.91,South,190,7.0,14.0,80,0.00,,,0.00,meteohub,2013-06-16 16:37:00,
2013-06-16 12:42:00,67.6,61.2,29.91,South,185,9.0,14.0,80,0.00,,,0.00,meteohub,2013-06-16 16:42:00,
2013-06-16 12:47:00,67.8,60.6,29.91,South,171,6.0,12.0,78,0.00,,,0.00,meteohub,2013-06-16 16:47:00,
2013-06-16 12:52:00,68.5,61.0,29.91,SSW,207,8.0,11.0,77,0.00,,,0.00,meteohub,2013-06-16 16:52:00,
2013-06-16 12:57:00,68.5,61.3,29.91,SSW,193,6.0,11.0,78,0.00,,,0.00,meteohub,2013-06-16 16:57:00,
2013-06-16 13:02:00,68.9,61.3,29.91,SSW,198,6.0,11.0,77,0.00,,,0.00,meteohub,2013-06-16 17:02:00,
2013-06-16 13:07:00,69.3,61.3,29.90,SSW,193,8.0,11.0,76,0.00,,,0.00,meteohub,2013-06-16 17:07:00,
2013-06-16 13:12:00,69.3,60.6,29.90,South,187,8.0,10.0,74,0.00,,,0.00,meteohub,2013-06-16 17:12:00,
2013-06-16 13:17:00,69.4,60.8,29.90,SSW,195,9.0,11.0,74,0.00,,,0.00,meteohub,2013-06-16 17:17:00,
2013-06-16 13:22:00,69.3,61.0,29.90,South,174,8.0,13.0,75,0.00,,,0.00,meteohub,2013-06-16 17:22:00,
2013-06-16 13:27:00,69.3,61.0,29.90,South,187,10.0,13.0,75,0.00,,,0.00,meteohub,2013-06-16 17:27:00,
2013-06-16 13:32:00,69.3,61.0,29.89,SSW,197,10.0,13.0,75,0.00,,,0.00,meteohub,2013-06-16 17:32:00,
2013-06-16 13:37:00,69.4,60.8,29.89,SSW,194,9.0,13.0,74,0.00,,,0.00,meteohub,2013-06-16 17:37:00,
2013-06-16 13:42:00,70.0,61.0,29.89,SSE,158,8.0,13.0,73,0.00,,,0.00,meteohub,2013-06-16 17:42:00,
2013-06-16 13:47:00,70.0,61.0,29.89,South,186,12.0,13.0,73,0.00,,,0.00,meteohub,2013-06-16 17:47:00,
2013-06-16 13:52:00,70.2,60.6,29.88,SW,214,10.0,14.0,72,0.00,,,0.00,meteohub,2013-06-16 17:52:00,
2013-06-16 13:57:00,70.0,61.0,29.88,South,184,12.0,14.0,73,0.00,,,0.00,meteohub,2013-06-16 17:57:00,
2013-06-16 14:02:00,69.4,60.8,29.88,SW,215,8.0,14.0,74,0.00,,,0.00,meteohub,2013-06-16 18:02:00,
2013-06-16 14:07:00,69.4,60.4,29.88,SSW,201,7.0,14.0,73,0.00,,,0.00,meteohub,2013-06-16 18:07:00,
2013-06-16 14:12:00,69.1,60.4,29.88,South,172,12.0,15.0,74,0.00,,,0.00,meteohub,2013-06-16 18:12:00,
2013-06-16 14:17:00,68.7,60.8,29.87,South,188,9.0,15.0,76,0.00,,,0.00,meteohub,2013-06-16 18:17:00,
2013-06-16 14:22:00,68.5,61.3,29.88,SW,215,9.0,15.0,78,0.00,,,0.00,meteohub,2013-06-16 18:22:00,
2013-06-16 14:27:00,68.2,61.3,29.87,SSW,195,11.0,14.0,79,0.00,,,0.00,meteohub,2013-06-16 18:27:00,
2013-06-16 14:32:00,67.8,61.0,29.87,SSW,205,11.0,14.0,79,0.00,,,0.00,meteohub,2013-06-16 18:32:00,
2013-06-16 14:37:00,67.8,61.3,29.87,South,169,10.0,14.0,80,0.00,,,0.00,meteohub,2013-06-16 18:37:00,
2013-06-16 14:42:00,67.3,61.0,29.86,SSE,163,9.0,13.0,80,0.00,,,0.00,meteohub,2013-06-16 18:42:00,
2013-06-16 14:47:00,66.7,61.0,29.86,SW,217,14.0,14.0,82,0.00,,,0.00,meteohub,2013-06-16 18:47:00,
2013-06-16 14:52:00,66.6,61.2,29.86,South,172,10.0,16.0,83,0.00,,,0.00,meteohub,2013-06-16 18:52:00,
2013-06-16 14:57:00,66.4,61.3,29.86,SSE,162,8.0,16.0,84,0.00,,,0.00,meteohub,2013-06-16 18:57:00,
2013-06-16 15:02:00,66.0,61.0,29.85,South,190,12.0,15.0,84,0.00,,,0.00,meteohub,2013-06-16 19:02:00,
2013-06-16 15:07:00,66.0,61.3,29.85,SSW,203,10.0,14.0,85,0.00,,,0.00,meteohub,2013-06-16 19:07:00,
2013-06-16 15:12:00,66.0,61.0,29.85,SSW,197,9.0,14.0,84,0.00,,,0.00,meteohub,2013-06-16 19:12:00,
2013-06-16 15:17:00,66.2,60.6,29.85,SW,233,8.0,16.0,82,0.00,,,0.00,meteohub,2013-06-16 19:17:00,
2013-06-16 15:22:00,66.6,60.6,29.84,SW,214,13.0,16.0,81,0.00,,,0.00,meteohub,2013-06-16 19:22:00,
2013-06-16 15:27:00,66.6,60.3,29.84,SSW,210,13.0,16.0,80,0.00,,,0.00,meteohub,2013-06-16 19:27:00,
2013-06-16 15:32:00,66.4,60.4,29.84,SSW,198,5.0,14.0,81,0.00,,,0.00,meteohub,2013-06-16 19:32:00,
2013-06-16 15:37:00,66.2,60.3,29.84,SSW,200,7.0,16.0,81,0.00,,,0.00,meteohub,2013-06-16 19:37:00,
2013-06-16 15:42:00,66.2,60.6,29.84,WSW,239,6.0,16.0,82,0.00,,,0.00,meteohub,2013-06-16 19:42:00,
2013-06-16 15:47:00,66.4,60.4,29.83,SW,228,11.0,15.0,81,0.00,,,0.00,meteohub,2013-06-16 19:47:00,
2013-06-16 15:52:00,66.4,60.8,29.83,SW,226,9.0,13.0,82,0.00,,,0.00,meteohub,2013-06-16 19:52:00,
2013-06-16 15:57:00,66.2,60.8,29.83,SSW,195,10.0,14.0,83,0.00,,,0.00,meteohub,2013-06-16 19:57:00,
2013-06-16 16:02:00,66.2,61.5,29.83,SW,232,9.0,15.0,85,0.00,,,0.00,meteohub,2013-06-16 20:02:00,
2013-06-16 16:07:00,66.0,61.7,29.83,SW,218,9.0,15.0,86,0.00,,,0.00,meteohub,2013-06-16 20:07:00,
2013-06-16 16:12:00,65.8,62.2,29.83,SSW,205,10.0,15.0,88,0.00,,,0.00,meteohub,2013-06-16 20:12:00,
2013-06-16 16:17:00,65.8,62.4,29.83,SSW,201,11.0,16.0,89,0.00,,,0.00,meteohub,2013-06-16 20:17:00,
2013-06-16 16:22:00,65.8,62.8,29.82,SSW,195,13.0,16.0,90,0.00,,,0.00,meteohub,2013-06-16 20:22:00,
2013-06-16 16:27:00,65.8,62.8,29.82,South,186,12.0,18.0,90,0.00,,,0.00,meteohub,2013-06-16 20:27:00,
2013-06-16 16:32:00,65.7,62.6,29.82,SW,224,14.0,18.0,90,0.00,,,0.00,meteohub,2013-06-16 20:32:00,
2013-06-16 16:37:00,66.0,62.6,29.81,SW,215,13.0,18.0,89,0.00,,,0.00,meteohub,2013-06-16 20:37:00,
2013-06-16 16:42:00,66.0,62.6,29.82,SSW,205,14.0,18.0,89,0.00,,,0.00,meteohub,2013-06-16 20:42:00,
2013-06-16 16:47:00,66.2,62.8,29.82,South,190,13.0,18.0,89,0.00,,,0.00,meteohub,2013-06-16 20:47:00,
2013-06-16 16:52:00,66.4,63.0,29.82,SSW,193,13.0,18.0,89,0.00,,,0.00,meteohub,2013-06-16 20:52:00,
2013-06-16 16:57:00,66.0,62.4,29.82,WSW,257,10.0,21.0,88,0.00,,,0.00,meteohub,2013-06-16 20:57:00,
2013-06-16 17:02:00,65.8,62.4,29.82,SW,232,9.0,21.0,89,0.00,,,0.00,meteohub,2013-06-16 21:02:00,
2013-06-16 17:07:00,65.8,62.4,29.82,SSW,195,21.0,21.0,89,0.00,,,0.00,meteohub,2013-06-16 21:07:00,
2013-06-16 17:12:00,65.7,62.2,29.81,South,186,15.0,24.0,89,0.00,,,0.00,meteohub,2013-06-16 21:12:00,
2013-06-16 17:17:00,65.5,62.4,29.81,SSW,195,14.0,24.0,90,0.00,,,0.00,meteohub,2013-06-16 21:17:00,
2013-06-16 17:22:00,65.5,62.4,29.81,South,176,11.0,24.0,90,0.00,,,0.00,meteohub,2013-06-16 21:22:00,
2013-06-16 17:27:00,65.5,62.2,29.81,SSW,203,14.0,23.0,89,0.00,,,0.00,meteohub,2013-06-16 21:27:00,
2013-06-16 17:32:00,65.5,62.2,29.81,SSW,208,16.0,21.0,89,0.00,,,0.00,meteohub,2013-06-16 21:32:00,
2013-06-16 17:37:00,65.3,62.2,29.81,SSW,194,16.0,22.0,90,0.00,,,0.00,meteohub,2013-06-16 21:37:00,
2013-06-16 17:42:00,64.9,61.9,29.81,SSW,197,9.0,22.0,90,0.00,,,0.00,meteohub,2013-06-16 21:42:00,
2013-06-16 17:47:00,64.8,62.1,29.81,SW,221,14.0,22.0,91,0.00,,,0.00,meteohub,2013-06-16 21:47:00,
2013-06-16 17:52:00,64.8,62.1,29.80,SSW,205,8.0,21.0,91,0.00,,,0.00,meteohub,2013-06-16 21:52:00,
2013-06-16 17:57:00,64.8,62.1,29.80,SSW,212,12.0,21.0,91,0.00,,,0.00,meteohub,2013-06-16 21:57:00,
2013-06-16 18:02:00,64.6,61.9,29.80,SSW,194,15.0,19.0,91,0.00,,,0.00,meteohub,2013-06-16 22:02:00,
2013-06-16 18:07:00,64.8,62.4,29.79,SSW,204,15.0,21.0,92,0.00,,,0.00,meteohub,2013-06-16 22:07:00,
2013-06-16 18:12:00,64.8,62.4,29.79,SSW,204,7.0,21.0,92,0.00,,,0.00,meteohub,2013-06-16 22:12:00,
2013-06-16 18:17:00,65.1,62.4,29.79,SW,228,14.0,20.0,91,0.00,,,0.00,meteohub,2013-06-16 22:17:00,
2013-06-16 18:22:00,65.3,62.6,29.80,South,174,17.0,20.0,91,0.00,,,0.00,meteohub,2013-06-16 22:22:00,
2013-06-16 18:27:00,65.5,62.8,29.80,SW,222,14.0,20.0,91,0.00,,,0.00,meteohub,2013-06-16 22:27:00,
2013-06-16 18:32:00,65.7,63.0,29.79,SSW,212,13.0,20.0,91,0.00,,,0.00,meteohub,2013-06-16 22:32:00,
2013-06-16 18:37:00,65.8,63.1,29.79,SSW,195,12.0,19.0,91,0.00,,,0.00,meteohub,2013-06-16 22:37:00,
2013-06-16 18:42:00,65.7,63.0,29.79,SSW,205,9.0,19.0,91,0.00,,,0.00,meteohub,2013-06-16 22:42:00,
2013-06-16 18:47:00,65.5,62.8,29.79,SSW,210,11.0,17.0,91,0.00,,,0.00,meteohub,2013-06-16 22:47:00,
2013-06-16 18:52:00,65.5,62.8,29.79,SSW,201,5.0,18.0,91,0.00,,,0.00,meteohub,2013-06-16 22:52:00,
2013-06-16 18:57:00,65.3,63.0,29.79,SSW,197,9.0,18.0,92,0.00,,,0.00,meteohub,2013-06-16 22:57:00,
2013-06-16 19:02:00,65.1,62.8,29.79,SW,215,12.0,18.0,92,0.00,,,0.00,meteohub,2013-06-16 23:02:00,
2013-06-16 19:07:00,64.9,62.6,29.79,WSW,242,9.0,16.0,92,0.00,,,0.00,meteohub,2013-06-16 23:07:00,
2013-06-16 19:12:00,64.8,62.6,29.79,WSW,242,11.0,16.0,93,0.00,,,0.00,meteohub,2013-06-16 23:12:00,
2013-06-16 19:17:00,64.8,63.0,29.79,SW,221,6.0,16.0,94,0.00,,,0.00,meteohub,2013-06-16 23:17:00,
2013-06-16 19:22:00,64.6,62.4,29.79,SW,221,2.0,16.0,93,0.00,,,0.00,meteohub,2013-06-16 23:22:00,
2013-06-16 19:27:00,64.6,62.8,29.79,SSW,212,4.0,14.0,94,0.00,,,0.00,meteohub,2013-06-16 23:27:00,
2013-06-16 19:32:00,64.6,62.8,29.79,SSW,210,8.0,13.0,94,0.00,,,0.00,meteohub,2013-06-16 23:32:00,
2013-06-16 19:37:00,64.6,62.8,29.79,South,186,5.0,9.0,94,0.00,,,0.00,meteohub,2013-06-16 23:37:00,
2013-06-16 19:42:00,64.6,62.8,29.78,SW,226,8.0,13.0,94,0.00,,,0.00,meteohub,2013-06-16 23:42:00,
2013-06-16 19:47:00,64.6,62.8,29.78,SSW,200,7.0,13.0,94,0.00,,,0.00,meteohub,2013-06-16 23:47:00,
2013-06-16 19:52:00,64.6,62.8,29.78,WSW,245,7.0,13.0,94,0.00,,,0.00,meteohub,2013-06-16 23:52:00,
2013-06-16 19:57:00,64.8,62.6,29.78,WSW,240,7.0,13.0,93,0.00,,,0.00,meteohub,2013-06-16 23:57:00,
2013-06-16 20:02:00,64.8,62.6,29.78,SW,226,6.0,13.0,93,0.00,,,0.00,meteohub,2013-06-17 00:02:00,
2013-06-16 20:07:00,64.9,62.8,29.78,SW,230,9.0,11.0,93,0.00,,,0.00,meteohub,2013-06-17 00:07:00,
2013-06-16 20:12:00,64.9,62.8,29.78,WSW,245,3.0,11.0,93,0.00,,,0.00,meteohub,2013-06-17 00:12:00,
2013-06-16 20:17:00,64.9,62.8,29.78,WSW,252,5.0,11.0,93,0.00,,,0.00,meteohub,2013-06-17 00:17:00,
2013-06-16 20:22:00,64.9,62.8,29.78,SW,221,3.0,11.0,93,0.00,,,0.00,meteohub,2013-06-17 00:22:00,
2013-06-16 20:27:00,64.9,62.8,29.78,SW,214,5.0,10.0,93,0.00,,,0.00,meteohub,2013-06-17 00:27:00,
2013-06-16 20:32:00,64.9,62.8,29.78,SW,215,6.0,11.0,93,0.00,,,0.00,meteohub,2013-06-17 00:32:00,
2013-06-16 20:37:00,65.1,63.0,29.78,SSW,212,3.0,11.0,93,0.00,,,0.00,meteohub,2013-06-17 00:37:00,
2013-06-16 20:42:00,65.1,63.0,29.78,West,259,1.0,11.0,93,0.00,,,0.00,meteohub,2013-06-17 00:42:00,
2013-06-16 20:47:00,65.1,62.8,29.78,SSE,167,3.0,10.0,92,0.00,,,0.00,meteohub,2013-06-17 00:47:00,
2013-06-16 20:52:00,65.3,63.0,29.78,SW,232,8.0,10.0,92,0.00,,,0.00,meteohub,2013-06-17 00:52:00,
2013-06-16 20:57:00,65.3,63.0,29.78,SW,224,5.0,13.0,92,0.00,,,0.00,meteohub,2013-06-17 00:57:00,
2013-06-16 21:02:00,65.1,62.8,29.78,SW,229,8.0,13.0,92,0.00,,,0.00,meteohub,2013-06-17 01:02:00,
2013-06-16 21:07:00,65.1,62.8,29.78,SW,219,9.0,13.0,92,0.00,,,0.00,meteohub,2013-06-17 01:07:00,
2013-06-16 21:12:00,65.1,62.8,29.79,SW,214,6.0,11.0,92,0.00,,,0.00,meteohub,2013-06-17 01:12:00,
2013-06-16 21:17:00,65.1,62.8,29.79,SW,228,6.0,11.0,92,0.00,,,0.00,meteohub,2013-06-17 01:17:00,
2013-06-16 21:22:00,65.1,62.8,29.79,WSW,252,3.0,10.0,92,0.00,,,0.00,meteohub,2013-06-17 01:22:00,
2013-06-16 21:27:00,65.1,62.8,29.79,WSW,242,4.0,9.0,92,0.00,,,0.00,meteohub,2013-06-17 01:27:00,
2013-06-16 21:32:00,65.5,63.1,29.79,SW,216,5.0,9.0,92,0.00,,,0.00,meteohub,2013-06-17 01:32:00,
2013-06-16 21:37:00,65.7,63.3,29.79,SSW,212,4.0,8.0,92,0.00,,,0.00,meteohub,2013-06-17 01:37:00,
2013-06-16 21:42:00,65.7,63.0,29.79,SW,228,4.0,8.0,91,0.00,,,0.00,meteohub,2013-06-17 01:42:00,
2013-06-16 21:47:00,65.8,63.1,29.80,West,269,7.0,9.0,91,0.00,,,0.00,meteohub,2013-06-17 01:47:00,
2013-06-16 21:52:00,66.0,63.3,29.80,SW,226,5.0,9.0,91,0.00,,,0.00,meteohub,2013-06-17 01:52:00,
2013-06-16 21:57:00,66.4,63.3,29.80,West,267,2.0,9.0,90,0.00,,,0.00,meteohub,2013-06-17 01:57:00,
2013-06-16 22:02:00,66.4,63.3,29.79,SW,225,7.0,9.0,90,0.00,,,0.00,meteohub,2013-06-17 02:02:00,
2013-06-16 22:07:00,66.6,63.5,29.79,SW,222,4.0,9.0,90,0.00,,,0.00,meteohub,2013-06-17 02:07:00,
2013-06-16 22:12:00,66.4,63.3,29.80,SSW,193,5.0,9.0,90,0.00,,,0.00,meteohub,2013-06-17 02:12:00,
2013-06-16 22:16:00,66.2,63.1,29.80,SW,229,3.0,9.0,90,0.00,,,0.00,meteohub,2013-06-17 02:16:00,
2013-06-16 22:22:00,66.2,63.1,29.80,SW,219,4.0,8.0,90,0.00,,,0.00,meteohub,2013-06-17 02:22:00,
2013-06-16 22:27:00,66.0,63.0,29.80,West,261,6.0,8.0,90,0.00,,,0.00,meteohub,2013-06-17 02:27:00,
2013-06-16 22:32:00,66.2,63.1,29.80,WSW,257,4.0,8.0,90,0.00,,,0.00,meteohub,2013-06-17 02:32:00,
2013-06-16 22:37:00,66.4,63.3,29.80,SW,233,3.0,7.0,90,0.00,,,0.00,meteohub,2013-06-17 02:37:00,
2013-06-16 22:42:00,66.4,63.3,29.80,WSW,251,3.0,7.0,90,0.00,,,0.00,meteohub,2013-06-17 02:42:00,
2013-06-16 22:47:00,66.6,63.5,29.80,WSW,240,5.0,7.0,90,0.00,,,0.00,meteohub,2013-06-17 02:47:00,
2013-06-16 22:52:00,66.7,63.7,29.81,WSW,248,4.0,8.0,90,0.00,,,0.00,meteohub,2013-06-17 02:52:00,
2013-06-16 22:57:00,66.9,63.5,29.81,WNW,283,3.0,9.0,89,0.00,,,0.00,meteohub,2013-06-17 02:57:00,
2013-06-16 23:02:00,67.3,63.9,29.81,West,278,4.0,9.0,89,0.00,,,0.00,meteohub,2013-06-17 03:02:00,
2013-06-16 23:07:00,67.5,63.9,29.81,SW,235,4.0,9.0,88,0.00,,,0.00,meteohub,2013-06-17 03:07:00,
2013-06-16 23:12:00,67.6,64.0,29.81,SW,222,3.0,9.0,88,0.00,,,0.00,meteohub,2013-06-17 03:12:00,
2013-06-16 23:17:00,67.8,63.9,29.81,West,273,4.0,8.0,87,0.00,,,0.00,meteohub,2013-06-17 03:17:00,
2013-06-16 23:22:00,67.8,63.9,29.81,SW,217,4.0,8.0,87,0.00,,,0.00,meteohub,2013-06-17 03:22:00,
2013-06-16 23:27:00,67.8,63.9,29.81,WSW,250,10.0,10.0,87,0.00,,,0.00,meteohub,2013-06-17 03:27:00,
2013-06-16 23:32:00,67.8,63.9,29.82,West,273,3.0,10.0,87,0.00,,,0.00,meteohub,2013-06-17 03:32:00,
2013-06-16 23:37:00,67.6,63.7,29.82,NW,322,4.0,10.0,87,0.00,,,0.00,meteohub,2013-06-17 03:37:00,
2013-06-16 23:42:00,67.6,64.0,29.82,WNW,293,2.0,10.0,88,0.00,,,0.00,meteohub,2013-06-17 03:42:00,
2013-06-16 23:47:00,67.6,64.0,29.82,WNW,291,1.0,8.0,88,0.00,,,0.00,meteohub,2013-06-17 03:47:00,
2013-06-16 23:52:00,67.6,64.0,29.82,WSW,240,2.0,8.0,88,0.00,,,0.00,meteohub,2013-06-17 03:52:00,
2013-06-16 23:57:00,67.5,63.9,29.82,WNW,284,3.0,6.0,88,0.00,,,0.00,meteohub,2013-06-17 03:57:00,